Погода Кокпекты

Поиск расширенной информации на нашем сайте:

Полезная информация:

Новости сайта



02.01.2020
Опубликован Долгосрочный прогноз погоды по городам России и ближнего зарубежья на январь 2020 года.
Карты: Прогноз на январь и февраль 2020 года, Сравнение прогнозируемой аномалии приземной температуры воздуха на январь 2020 года по разным моделям.




Погода Кокпекты - сегодня

Время (UTC), дата Ветер
(°,м/с) 
Видим.   Явления Облачность Т
(°С)
Тd
(°С)
f(%) Тe
(°С)
Pmin
(гПа)
dP
(гПа)
Po
(мм)
O2
(г/м3)
Тmin Tmax R s Состояние
почвы
12 22.10.21 290 (З) н/о  {ливн. осадки}  9/9 600 м кучево-дожд. 
[Cb calv]
+3.7 -0.3 75 +3  1031.1  2.1  727  289           
15 22.10.21 240 (ЮЗ) н/о    9/9 600 м кучево-дожд. 
[Cb calv]
+2.4 -1.2 77 +2  1033.8  2.3  728  291    +7.2     
18 22.10.21 280 (З) н/о    9/9 600 м кучево-дожд. 
[Cb calv]
+1.8 -1.6 78 +1  1035.5  1.4  729  292    +7.2     
21 22.10.21 260 (З) н/о    9/9 600 м кучево-дожд. 
[Cb calv]
+1.1 -2.4 77 1036.7  0.8  730  293           
00 23.10.21 230 (ЮЗ) н/о    5/3 600 м кучево-дожд., средняя 
[Cb calv|Ac trans]
+0.2 -3.1 78 -2  1037.7  0.7  731  294           
03 23.10.21 тихо ()   20000 м    6/0 средняя, верхняя 
[Ac trans|Ci fib]
+2.6 -3.2 66 +3  1038.7  1.5  732  292           
06 23.10.21 240 (ЮЗ) 20000 м    8/4 600 м кучево-дожд., средняя 
[Cb calv|Ac trans]
+5.6 -1.6 60 +5  1037.5  -0.5  731  289  +0.2         
09 23.10.21 230 (ЮЗ) 20000 м    9/5 600 м кучево-дожд., средняя 
[Cb calv|Ac trans]
+4.9 -2.9 57 +3  1036.4  -1.2  730  289           
12 23.10.21 240 (ЮЗ) н/о    9/9 600 м кучево-дожд. 
[Cb calv]
+2.6 -4.3 60 1037.4  0.5  731  292           
15 23.10.21 170 (Ю) н/о    9/9 600 м кучево-дожд. 
[Cb calv]
+2.1 -3.8 65 +1  1038.3  0.7  731  293    +5.9       
18 23.10.21 190 (Ю) н/о    9/9 600 м кучево-дожд. 
[Cb calv]
+1.6 -2.4 75 +1  1038.3  -0.1  731  293    +5.9       
21 23.10.21 170 (Ю) н/о    9/9 600 м кучево-дожд. 
[Cb calv]
+0.9 -2.6 77 +2  1038.2  -0.2  731  294           
00 24.10.21 170 (Ю) н/о    9/9 600 м кучево-дожд. 
[Cb calv]
+0.3 -3 78 +1  1038.1  -0.3  731  294           
03 24.10.21 тихо ()   20000 м    9/9 600 м кучево-дожд. 
[Cb calv]
+2.8 -2.6 68 +3  1037.6  0.1  731  292           
06 24.10.21 130 (ЮВ) 20000 м    8/4 600 м кучево-дожд., средняя 
[Cb calv|Ac trans]
+7 -0.7 58 +6  1035.3  -1.2  730  287  +0.3         
09 24.10.21 150 (ЮВ) 20000 м    5/3 600 м кучево-дожд., средняя 
[Cb calv|Ac trans]
+8.5 -0.9 52 +7  1033.3  -1.6  729  285           
12 24.10.21 130 (ЮВ) н/о    8/0 средняя 
[Ac trans]
+4.9 -2.2 60 +3  1033.1  -0.9  728  288           
15 24.10.21 200 (Ю) н/о    4/0 средняя 
[Ac trans]
+0.3 -5.1 67 1034.7  0.5  728  294    +8.9       
18 24.10.21 тихо ()   н/о    3/0 средняя 
[Ac trans]
-2.7 -6.9 73 -3  1033.9  -1.4  727  297    +8.9       
21 24.10.21 тихо ()   н/о    3/0 средняя 
[Ac trans]
-4 -7.7 75 -4  1032.8  -1.4  726  298           
00 25.10.21 тихо ()   н/о    ясно 
-5.8 -8.8 79 -6  1031.5  -1.6  725  299           
03 25.10.21 тихо ()   20000 м    ясно 
-2 -6.8 70 -2  1029.7  -0.8  725  295  -5.8         
06 25.10.21 130 (ЮВ) 20000 м    ясно 
+7.5 -1.6 52 +7  1026.1  -1.3  724  284  -5.8         
09 25.10.21 120 (ЮВ) 20000 м    ясно 
+9.7 -2.8 41 +9  1023.2  -2.3  722  281           
12 25.10.21 100 (В) н/о    ясно 
+6.2 -1.7 57 +7  1023.7  -0.2  722  284           
Время (UTC), дата Ветер
(°,м/с) 
Видим.   Явления Облачность Т
(°С)
Тd
(°С)
f(%) Тe
(°С)
Pmin
(гПа)
dP
(гПа)
Po
(мм)
O2
(г/м3)
Тmin Tmax R s Состояние
почвы

Для получения пояснительной информации подведите курсор к названию столбца.

ПОГОДА Кокпекты - архив

Всё, что Вы хотите узнать о погоде Кокпекты - удобно и подробно!

Выберите нужную дату (начиная с 1 января 2019* года) и нажмите кнопку "Найти".
Будут отображены архивные сводки погоды по пункту Кокпекты, начиная с указанной даты.


Отображать данные в формате CSV (для использования в таблицах Excel)


Внимание! Наш архив погоды предназначен исключительно для личного некоммерческого использования в познавательных целях. Если Вам необходимы официальные справки о состоянии погоды (для производственных, юридических, коммерческих и т.п. целей), обращайтесь в органы Росгидромета.

*Примечание: данная дата относится к архиву по метеостанциям СССР (Россия, СНГ, Балтия).
Архив по метеостанциям Зарубежной Европы и Азии (кроме Китая) хранится 10 дней, по другим регионам земного шара (Китай, Африка, Америка, Австралия, Океания) - 1 день.

Кокпекты - район местоположения метеостанции


Название, широта, долгота, высота метеостанции:
Кокпекты 48.8°ш. 82.4°д. 512 м над ур. моря [Казахстан]

Дополнительная информация

В oтличие oт бoльшинства пoгoдных сайтoв мы публикуем пoдрoбную метеoинфoрмацию в детальнoм прoфессиoнальнoм фoрмате.

Характеристики температуры и влажнoсти вoздуха измеряются на высoте 2 м в тени вдали oт зданий и деревьев.
Скoрoсть ветра измеряется на высoте 10 м (на урoвне рoста челoвека скoрoсть ветра ниже в 1.5-2 раза). Если метеoстанция нахoдится в гoрoде или в лесу, тo скoрoсть ветра занижена на 2-4 м/с пo сравнению с oткрытым местoм. Скoрoсть ветра над акватoриями крупных рек и oзёр, а также на вершинах хoлмoв на 2-5 м/с выше, чем в oбычных услoвиях.
Атмoсфернoе давление в разных тoчках местнoсти мoжет значительнo oтличаться oт давления на метеoстанции, в зависимoсти oт услoвий рельефа (при пoдъёме на 10 м давление пoнижается примернo на 1 мм рт.ст.).